| time (UTC) | temp C | wind direction | speed KPH | gust KPH | rain 1hr cm | rain 24hr cm | rain mn cm | humidity % | barometer mb |
| 20260508035003 | 8 | 18 | 1.6 | 4.8 | 0.00 | 0.00 | 0.00 | 87 | 1021.4 |
| 20260508034504 | 8 | 11 | 1.6 | 1.6 | 0.00 | 0.00 | 0.00 | 88 | 1021.5 |
| 20260508034003 | 8 | 13 | 1.6 | 3.2 | 0.00 | 0.00 | 0.00 | 89 | 1021.3 |
| 20260508033503 | 8 | 42 | 1.6 | 3.2 | 0.00 | 0.00 | 0.00 | 90 | 1021.2 |
| 20260508033003 | 8 | 29 | 0.0 | 0.0 | 0.00 | 0.00 | 0.00 | 90 | 1021.3 |
| 20260508032503 | 8 | 34 | 0.0 | 0.0 | 0.00 | 0.00 | 0.00 | 90 | 1021.1 |
| 20260508032006 | 8 | 16 | 1.6 | 3.2 | 0.00 | 0.00 | 0.00 | 90 | 1021.2 |
| 20260508031505 | 8 | 32 | 3.2 | 3.2 | 0.00 | 0.00 | 0.00 | 91 | 1021.3 |
| 20260508031004 | 8 | 29 | 0.0 | 0.0 | 0.00 | 0.00 | 0.00 | 91 | 1021.2 |
| 20260508030504 | 8 | 25 | 0.0 | 1.6 | 0.00 | 0.00 | 0.00 | 91 | 1021.1 |
| 20260508030003 | 8 | 30 | 0.0 | 1.6 | 0.00 | 0.00 | 0.00 | 91 | 1021.0 |
| 20260508025504 | 8 | 9 | 1.6 | 3.2 | 0.00 | 0.00 | 0.00 | 91 | 1020.9 |
| 20260508025002 | 8 | 35 | 0.0 | 3.2 | 0.00 | 0.00 | 0.00 | 91 | 1021.1 |
| 20260508024502 | 8 | 25 | 0.0 | 3.2 | 0.00 | 0.00 | 0.00 | 91 | 1020.9 |
| 20260508024003 | 8 | 15 | 0.0 | 4.8 | 0.00 | 0.00 | 0.00 | 91 | 1020.7 |
| 20260508023503 | 8 | 21 | 0.0 | 3.2 | 0.00 | 0.00 | 0.00 | 91 | 1020.9 |
| 20260508023004 | 8 | 25 | 1.6 | 1.6 | 0.00 | 0.00 | 0.00 | 91 | 1021.1 |
| 20260508022503 | 8 | 28 | 3.2 | 3.2 | 0.00 | 0.00 | 0.00 | 91 | 1020.8 |
| 20260508022004 | 8 | 17 | 1.6 | 3.2 | 0.00 | 0.00 | 0.00 | 91 | 1020.9 |
| 20260508021003 | 8 | 14 | 0.0 | 1.6 | 0.00 | 0.00 | 0.00 | 91 | 1021.0 |
| 20260508020506 | 8 | 2 | 1.6 | 3.2 | 0.00 | 0.00 | 0.00 | 91 | 1020.8 |
| 20260508015504 | 8 | 37 | 1.6 | 3.2 | 0.00 | 0.00 | 0.00 | 91 | 1021.0 |
| 20260508015003 | 8 | 34 | 0.0 | 3.2 | 0.00 | 0.00 | 0.00 | 91 | 1020.7 |
| 20260508014504 | 8 | 0 | 0.0 | 3.2 | 0.00 | 0.00 | 0.00 | 91 | 1020.9 |
| 20260508014005 | 8 | 20 | 1.6 | 3.2 | 0.00 | 0.00 | 0.00 | 91 | 1020.9 |
| 20260508013504 | 8 | 6 | 1.6 | 3.2 | 0.00 | 0.00 | 0.00 | 90 | 1020.8 |
| 20260508013003 | 8 | 30 | 3.2 | 3.2 | 0.00 | 0.00 | 0.00 | 90 | 1020.8 |
| 20260508012503 | 8 | 15 | 3.2 | 3.2 | 0.00 | 0.00 | 0.00 | 90 | 1020.8 |
| 20260508012004 | 8 | 10 | 1.6 | 3.2 | 0.00 | 0.00 | 0.00 | 90 | 1021.0 |
| 20260508011004 | 8 | 17 | 1.6 | 4.8 | 0.00 | 0.00 | 0.00 | 90 | 1021.0 |
| 20260508010504 | 8 | 25 | 0.0 | 3.2 | 0.00 | 0.00 | 0.00 | 90 | 1020.9 |
| 20260508010005 | 9 | 21 | 0.0 | 1.6 | 0.00 | 0.00 | 0.00 | 90 | 1020.9 |
| 20260508005503 | 9 | 15 | 1.6 | 4.8 | 0.00 | 0.00 | 0.00 | 90 | 1021.0 |
| 20260508005004 | 9 | 3 | 3.2 | 3.2 | 0.00 | 0.00 | 0.00 | 90 | 1020.8 |
| 20260508004504 | 9 | 37 | 0.0 | 3.2 | 0.00 | 0.00 | 0.00 | 90 | 1020.8 |
| 20260508004003 | 9 | 4 | 3.2 | 3.2 | 0.00 | 0.00 | 0.00 | 90 | 1020.8 |
| 20260508003503 | 9 | 24 | 0.0 | 1.6 | 0.00 | 0.00 | 0.00 | 90 | 1020.8 |
| 20260508003004 | 9 | 9 | 3.2 | 3.2 | 0.00 | 0.00 | 0.00 | 90 | 1020.8 |
| 20260508002503 | 9 | 19 | 0.0 | 1.6 | 0.00 | 0.00 | 0.00 | 90 | 1020.8 |
| 20260508002002 | 9 | 18 | 1.6 | 3.2 | 0.00 | 0.00 | 0.00 | 91 | 1020.7 |
| 20260508001505 | 9 | 18 | 1.6 | 3.2 | 0.00 | 0.00 | 0.00 | 91 | 1020.8 |
| 20260508000505 | 9 | 24 | 0.0 | 1.6 | 0.00 | 0.00 | 0.00 | 91 | 1020.8 |
| 20260508000006 | 9 | 14 | 0.0 | 1.6 | 0.00 | 0.00 | 0.00 | 91 | 1020.9 |
| 20260507235503 | 9 | 10 | 0.0 | 1.6 | 0.00 | 0.00 | 0.00 | 91 | 1020.8 |
| 20260507235004 | 9 | 11 | 0.0 | 0.0 | 0.00 | 0.00 | 0.00 | 91 | 1020.9 |
| 20260507234503 | 9 | 11 | 0.0 | 0.0 | 0.00 | 0.00 | 0.00 | 91 | 1020.9 |
| 20260507234004 | 9 | 10 | 0.0 | 1.6 | 0.00 | 0.00 | 0.00 | 91 | 1020.9 |
| 20260507233505 | 9 | 35 | 0.0 | 1.6 | 0.00 | 0.00 | 0.00 | 91 | 1020.8 |
| 20260507233004 | 9 | 18 | 1.6 | 4.8 | 0.00 | 0.00 | 0.00 | 90 | 1020.8 |
| 20260507232004 | 9 | 20 | 0.0 | 1.6 | 0.00 | 0.00 | 0.00 | 91 | 1020.7 |
| 20260507231503 | 9 | 21 | 0.0 | 3.2 | 0.00 | 0.00 | 0.00 | 91 | 1020.8 |
| 20260507231004 | 9 | 30 | 0.0 | 0.0 | 0.00 | 0.00 | 0.00 | 91 | 1020.7 |
| 20260507230504 | 9 | 20 | 1.6 | 4.8 | 0.00 | 0.00 | 0.00 | 91 | 1021.0 |
| 20260507230003 | 9 | 17 | 0.0 | 1.6 | 0.00 | 0.00 | 0.00 | 91 | 1021.0 |
| 20260507225503 | 9 | 354 | 1.6 | 4.8 | 0.00 | 0.00 | 0.00 | 91 | 1020.9 |
| 20260507225003 | 9 | 14 | 0.0 | 3.2 | 0.00 | 0.00 | 0.00 | 91 | 1020.9 |
| 20260507224504 | 9 | 21 | 0.0 | 1.6 | 0.00 | 0.00 | 0.00 | 91 | 1020.9 |
| 20260507224004 | 9 | 356 | 1.6 | 1.6 | 0.00 | 0.00 | 0.00 | 90 | 1020.9 |
| 20260507223503 | 9 | 359 | 1.6 | 3.2 | 0.00 | 0.00 | 0.00 | 90 | 1021.0 |
| 20260507223003 | 9 | 10 | 0.0 | 1.6 | 0.00 | 0.00 | 0.00 | 90 | 1021.0 |
| 20260507222504 | 9 | 28 | 0.0 | 3.2 | 0.00 | 0.00 | 0.00 | 90 | 1020.9 |
| 20260507222003 | 9 | 23 | 0.0 | 1.6 | 0.00 | 0.00 | 0.00 | 89 | 1020.9 |
| 20260507221503 | 9 | 10 | 1.6 | 3.2 | 0.00 | 0.00 | 0.00 | 89 | 1020.8 |
| 20260507221008 | 9 | 359 | 1.6 | 4.8 | 0.00 | 0.00 | 0.00 | 90 | 1020.9 |
| 20260507220502 | 9 | 14 | 3.2 | 4.8 | 0.00 | 0.00 | 0.00 | 90 | 1020.7 |
| 20260507220004 | 9 | 23 | 0.0 | 1.6 | 0.00 | 0.00 | 0.71 | 90 | 1020.9 |
| 20260507215504 | 9 | 0 | 1.6 | 3.2 | 0.00 | 0.00 | 0.71 | 90 | 1020.8 |
| 20260507215006 | 9 | 21 | 0.0 | 0.0 | 0.00 | 0.00 | 0.71 | 89 | 1020.8 |
| 20260507214503 | 9 | 25 | 1.6 | 3.2 | 0.00 | 0.00 | 0.71 | 89 | 1020.6 |
| 20260507214003 | 9 | 25 | 0.0 | 1.6 | 0.00 | 0.00 | 0.71 | 89 | 1020.7 |
| 20260507213503 | 9 | 358 | 1.6 | 3.2 | 0.00 | 0.00 | 0.71 | 89 | 1020.6 |
| 20260507213003 | 9 | 28 | 0.0 | 3.2 | 0.00 | 0.00 | 0.71 | 89 | 1020.7 |
| 20260507212502 | 9 | 14 | 1.6 | 1.6 | 0.00 | 0.00 | 0.71 | 89 | 1020.7 |
| 20260507212006 | 9 | 17 | 1.6 | 3.2 | 0.00 | 0.00 | 0.71 | 89 | 1020.5 |
| 20260507211503 | 9 | 9 | 1.6 | 3.2 | 0.00 | 0.00 | 0.71 | 89 | 1020.6 |
| 20260507211006 | 9 | 18 | 1.6 | 3.2 | 0.00 | 0.00 | 0.71 | 88 | 1020.6 |
| 20260507210505 | 9 | 17 | 0.0 | 1.6 | 0.00 | 0.00 | 0.71 | 88 | 1020.6 |
| 20260507210003 | 9 | 20 | 1.6 | 1.6 | 0.00 | 0.00 | 0.71 | 88 | 1020.6 |
| 20260507205506 | 9 | 30 | 0.0 | 3.2 | 0.00 | 0.00 | 0.71 | 89 | 1020.3 |
| 20260507205002 | 9 | 17 | 1.6 | 3.2 | 0.00 | 0.00 | 0.71 | 89 | 1020.6 |
| 20260507204502 | 10 | 349 | 1.6 | 4.8 | 0.00 | 0.00 | 0.71 | 88 | 1020.3 |
| 20260507204004 | 10 | 29 | 1.6 | 3.2 | 0.00 | 0.00 | 0.71 | 89 | 1020.4 |
| 20260507203004 | 10 | 24 | 0.0 | 0.0 | 0.00 | 0.00 | 0.71 | 89 | 1020.4 |
| 20260507202503 | 10 | 33 | 1.6 | 1.6 | 0.00 | 0.00 | 0.71 | 89 | 1020.3 |
| 20260507202003 | 10 | 43 | 1.6 | 3.2 | 0.00 | 0.00 | 0.71 | 89 | 1020.1 |
| 20260507201503 | 10 | 42 | 3.2 | 4.8 | 0.00 | 0.00 | 0.71 | 88 | 1020.2 |
| 20260507201003 | 10 | 29 | 1.6 | 3.2 | 0.00 | 0.00 | 0.71 | 88 | 1020.3 |
| 20260507200503 | 10 | 45 | 1.6 | 3.2 | 0.00 | 0.00 | 0.71 | 88 | 1020.4 |
| 20260507200002 | 10 | 24 | 0.0 | 3.2 | 0.00 | 0.00 | 0.71 | 88 | 1020.3 |
| 20260507195502 | 10 | 34 | 0.0 | 3.2 | 0.00 | 0.00 | 0.71 | 88 | 1020.2 |
| 20260507195003 | 10 | 8 | 1.6 | 4.8 | 0.00 | 0.00 | 0.71 | 88 | 1020.2 |
| 20260507194502 | 10 | 344 | 3.2 | 3.2 | 0.00 | 0.00 | 0.71 | 88 | 1020.1 |
| 20260507194003 | 10 | 13 | 1.6 | 3.2 | 0.00 | 0.00 | 0.71 | 88 | 1020.0 |
| 20260507193504 | 10 | 38 | 3.2 | 8.0 | 0.00 | 0.00 | 0.71 | 88 | 1019.9 |
| 20260507193002 | 10 | 20 | 3.2 | 4.8 | 0.00 | 0.00 | 0.71 | 88 | 1019.9 |
| 20260507192502 | 10 | 9 | 1.6 | 3.2 | 0.00 | 0.00 | 0.71 | 89 | 1019.8 |
| 20260507192003 | 10 | 9 | 1.6 | 4.8 | 0.00 | 0.00 | 0.71 | 88 | 1019.7 |
| 20260507191502 | 10 | 7 | 1.6 | 4.8 | 0.00 | 0.00 | 0.71 | 88 | 1019.7 |
| 20260507191003 | 10 | 5 | 0.0 | 4.8 | 0.00 | 0.00 | 0.71 | 88 | 1019.8 |
| 20260507185507 | 10 | 1 | 1.6 | 4.8 | 0.00 | 0.00 | 0.71 | 88 | 1019.4 |
| 20260507185002 | 10 | 16 | 1.6 | 8.0 | 0.00 | 0.00 | 0.71 | 88 | 1019.3 |
| 20260507184505 | 10 | 342 | 4.8 | 8.0 | 0.00 | 0.00 | 0.71 | 88 | 1019.2 |
| 20260507184003 | 10 | 11 | 0.0 | 4.8 | 0.00 | 0.00 | 0.71 | 88 | 1019.1 |
| 20260507183504 | 10 | 356 | 3.2 | 4.8 | 0.00 | 0.00 | 0.71 | 88 | 1019.2 |
| 20260507183006 | 10 | 18 | 0.0 | 4.8 | 0.00 | 0.00 | 0.71 | 88 | 1019.4 |
| 20260507182006 | 10 | 22 | 1.6 | 3.2 | 0.00 | 0.00 | 0.71 | 88 | 1018.9 |
| 20260507181503 | 10 | 28 | 1.6 | 3.2 | 0.00 | 0.00 | 0.71 | 88 | 1018.8 |
| 20260507181003 | 10 | 21 | 1.6 | 4.8 | 0.00 | 0.00 | 0.71 | 88 | 1018.9 |
| 20260507180504 | 10 | 34 | 1.6 | 1.6 | 0.00 | 0.00 | 0.71 | 88 | 1018.7 |
| 20260507180004 | 10 | 13 | 3.2 | 4.8 | 0.00 | 0.00 | 0.71 | 88 | 1018.7 |
| 20260507175503 | 10 | 1 | 1.6 | 1.6 | 0.00 | 0.00 | 0.71 | 88 | 1018.9 |
| 20260507175003 | 10 | 24 | 3.2 | 8.0 | 0.00 | 0.00 | 0.71 | 88 | 1018.6 |
| 20260507174506 | 10 | 25 | 3.2 | 8.0 | 0.00 | 0.00 | 0.71 | 89 | 1018.6 |
| 20260507174005 | 10 | 23 | 1.6 | 3.2 | 0.00 | 0.00 | 0.71 | 88 | 1018.7 |
| 20260507173502 | 10 | 35 | 1.6 | 4.8 | 0.00 | 0.00 | 0.71 | 88 | 1018.8 |
| 20260507173005 | 10 | 356 | 1.6 | 4.8 | 0.00 | 0.00 | 0.71 | 88 | 1018.6 |
| 20260507172503 | 10 | 37 | 0.0 | 4.8 | 0.00 | 0.00 | 0.71 | 88 | 1018.5 |
| 20260507172003 | 10 | 349 | 1.6 | 4.8 | 0.00 | 0.00 | 0.71 | 88 | 1018.4 |
| 20260507171503 | 10 | 52 | 1.6 | 4.8 | 0.00 | 0.00 | 0.71 | 88 | 1018.4 |
| 20260507171005 | 10 | 55 | 4.8 | 8.0 | 0.00 | 0.00 | 0.71 | 88 | 1018.5 |
| 20260507170502 | 10 | 51 | 3.2 | 8.0 | 0.00 | 0.00 | 0.71 | 89 | 1018.2 |
| 20260507170003 | 10 | 56 | 3.2 | 3.2 | 0.00 | 0.00 | 0.71 | 89 | 1018.2 |
| 20260507165505 | 10 | 12 | 1.6 | 8.0 | 0.00 | 0.00 | 0.71 | 89 | 1018.3 |
| 20260507165004 | 10 | 35 | 1.6 | 9.7 | 0.00 | 0.00 | 0.71 | 89 | 1018.3 |
| 20260507164502 | 10 | 4 | 3.2 | 8.0 | 0.00 | 0.00 | 0.71 | 89 | 1018.1 |
| 20260507164006 | 10 | 27 | 1.6 | 8.0 | 0.00 | 0.00 | 0.71 | 88 | 1018.1 |
| 20260507163504 | 10 | 2 | 4.8 | 4.8 | 0.00 | 0.00 | 0.71 | 88 | 1017.8 |
| 20260507163003 | 11 | 359 | 1.6 | 3.2 | 0.00 | 0.00 | 0.71 | 87 | 1017.7 |
| 20260507162504 | 10 | 9 | 3.2 | 4.8 | 0.00 | 0.00 | 0.71 | 87 | 1017.7 |
| 20260507162002 | 10 | 20 | 1.6 | 8.0 | 0.00 | 0.00 | 0.71 | 88 | 1017.5 |
| 20260507161504 | 10 | 44 | 3.2 | 9.7 | 0.00 | 0.00 | 0.71 | 88 | 1017.4 |
| 20260507161002 | 10 | 119 | 4.8 | 8.0 | 0.00 | 0.00 | 0.71 | 88 | 1017.6 |
| 20260507160504 | 10 | 24 | 6.4 | 9.7 | 0.00 | 0.00 | 0.71 | 88 | 1017.4 |
| 20260507160003 | 10 | 37 | 3.2 | 4.8 | 0.00 | 0.00 | 0.71 | 88 | 1017.5 |
| 20260507155503 | 11 | 351 | 1.6 | 4.8 | 0.00 | 0.00 | 0.71 | 88 | 1017.6 |
| 20260507155003 | 11 | 28 | 1.6 | 8.0 | 0.00 | 0.00 | 0.71 | 88 | 1017.5 |
| 20260507154503 | 11 | 23 | 3.2 | 9.7 | 0.00 | 0.00 | 0.71 | 88 | 1017.4 |
| 20260507154004 | 10 | 15 | 1.6 | 4.8 | 0.00 | 0.00 | 0.71 | 89 | 1017.4 |
| 20260507153503 | 10 | 11 | 8.0 | 11.3 | 0.00 | 0.00 | 0.71 | 89 | 1017.4 |
| 20260507153003 | 10 | 22 | 3.2 | 4.8 | 0.00 | 0.00 | 0.71 | 90 | 1017.3 |
| 20260507152502 | 10 | 10 | 3.2 | 11.3 | 0.00 | 0.00 | 0.71 | 90 | 1017.3 |
| 20260507152004 | 11 | 356 | 4.8 | 9.7 | 0.00 | 0.00 | 0.71 | 90 | 1017.6 |
| 20260507151504 | 11 | 342 | 8.0 | 11.3 | 0.00 | 0.00 | 0.71 | 90 | 1017.4 |
| 20260507151002 | 11 | 29 | 1.6 | 8.0 | 0.00 | 0.00 | 0.71 | 90 | 1017.4 |
| 20260507150503 | 11 | 36 | 0.0 | 11.3 | 0.00 | 0.00 | 0.71 | 90 | 1017.4 |
| 20260507150003 | 11 | 354 | 4.8 | 8.0 | 0.00 | 0.00 | 0.71 | 90 | 1017.0 |
| 20260507145504 | 11 | 18 | 1.6 | 9.7 | 0.00 | 0.00 | 0.71 | 90 | 1017.0 |
| 20260507145003 | 11 | 347 | 11.3 | 14.5 | 0.00 | 0.00 | 0.71 | 90 | 1017.1 |
| 20260507144503 | 11 | 27 | 4.8 | 11.3 | 0.00 | 0.00 | 0.71 | 89 | 1017.0 |
| 20260507144004 | 11 | 327 | 4.8 | 9.7 | 0.00 | 0.00 | 0.71 | 90 | 1017.0 |
| 20260507143503 | 11 | 1 | 3.2 | 8.0 | 0.00 | 0.00 | 0.71 | 90 | 1016.8 |
| 20260507143004 | 11 | 21 | 6.4 | 9.7 | 0.00 | 0.00 | 0.71 | 90 | 1017.0 |
| 20260507142506 | 11 | 349 | 6.4 | 9.7 | 0.00 | 0.00 | 0.71 | 89 | 1017.2 |
| 20260507142004 | 11 | 333 | 3.2 | 11.3 | 0.00 | 0.00 | 0.71 | 89 | 1017.1 |
| 20260507141505 | 11 | 342 | 3.2 | 9.7 | 0.00 | 0.00 | 0.71 | 88 | 1016.9 |
| 20260507141007 | 12 | 22 | 1.6 | 11.3 | 0.00 | 0.00 | 0.71 | 87 | 1017.0 |
| 20260507140503 | 12 | 354 | 3.2 | 11.3 | 0.00 | 0.00 | 0.71 | 88 | 1017.2 |
| 20260507140004 | 11 | 356 | 3.2 | 4.8 | 0.00 | 0.00 | 0.71 | 89 | 1017.2 |
| 20260507135502 | 11 | 24 | 1.6 | 11.3 | 0.00 | 0.00 | 0.71 | 88 | 1017.2 |
| 20260507135004 | 12 | 17 | 3.2 | 9.7 | 0.00 | 0.00 | 0.71 | 88 | 1017.0 |
| 20260507134504 | 11 | 344 | 4.8 | 4.8 | 0.00 | 0.00 | 0.71 | 89 | 1017.1 |
| 20260507134002 | 11 | 0 | 4.8 | 12.9 | 0.00 | 0.00 | 0.71 | 88 | 1016.9 |
| 20260507133503 | 12 | 24 | 8.0 | 11.3 | 0.00 | 0.00 | 0.71 | 88 | 1017.0 |
| 20260507133002 | 12 | 10 | 1.6 | 8.0 | 0.00 | 0.00 | 0.71 | 88 | 1017.0 |
| 20260507132504 | 12 | 34 | 0.0 | 4.8 | 0.00 | 0.00 | 0.71 | 89 | 1017.0 |
| 20260507132004 | 12 | 27 | 6.4 | 11.3 | 0.00 | 0.00 | 0.71 | 88 | 1016.9 |
| 20260507131503 | 12 | 13 | 6.4 | 9.7 | 0.00 | 0.00 | 0.71 | 89 | 1017.0 |
| 20260507131004 | 12 | 343 | 3.2 | 8.0 | 0.00 | 0.00 | 0.71 | 88 | 1016.8 |
| 20260507130506 | 12 | 348 | 6.4 | 12.9 | 0.00 | 0.00 | 0.71 | 89 | 1016.7 |
| 20260507130004 | 11 | 13 | 1.6 | 9.7 | 0.00 | 0.00 | 0.71 | 90 | 1016.7 |
| 20260507125503 | 12 | 26 | 4.8 | 9.7 | 0.00 | 0.00 | 0.71 | 88 | 1016.9 |
| 20260507125004 | 12 | 23 | 1.6 | 4.8 | 0.00 | 0.00 | 0.71 | 89 | 1016.9 |
| 20260507124504 | 12 | 33 | 3.2 | 8.0 | 0.00 | 0.00 | 0.71 | 89 | 1016.8 |
| 20260507124002 | 12 | 19 | 1.6 | 8.0 | 0.00 | 0.00 | 0.71 | 89 | 1016.8 |
| 20260507123502 | 12 | 0 | 1.6 | 4.8 | 0.00 | 0.00 | 0.71 | 89 | 1016.8 |
| 20260507123003 | 12 | 358 | 3.2 | 3.2 | 0.00 | 0.00 | 0.71 | 90 | 1016.7 |
| 20260507122503 | 12 | 344 | 0.0 | 4.8 | 0.00 | 0.00 | 0.71 | 90 | 1016.8 |
| 20260507122003 | 12 | 21 | 1.6 | 4.8 | 0.00 | 0.00 | 0.71 | 91 | 1016.7 |
| 20260507121506 | 11 | 352 | 3.2 | 4.8 | 0.00 | 0.00 | 0.71 | 92 | 1016.5 |
| 20260507121004 | 11 | 14 | 3.2 | 8.0 | 0.00 | 0.00 | 0.71 | 91 | 1016.7 |
| 20260507120504 | 11 | 10 | 1.6 | 8.0 | 0.00 | 0.00 | 0.71 | 92 | 1016.6 |
| 20260507120004 | 11 | 20 | 4.8 | 8.0 | 0.00 | 0.00 | 0.71 | 92 | 1016.6 |
| 20260507115503 | 11 | 21 | 4.8 | 4.8 | 0.00 | 0.00 | 0.71 | 93 | 1016.6 |
| 20260507115003 | 11 | 44 | 0.0 | 1.6 | 0.00 | 0.00 | 0.71 | 93 | 1016.6 |
| 20260507114503 | 11 | 41 | 1.6 | 9.7 | 0.00 | 0.00 | 0.71 | 93 | 1016.5 |
| 20260507114006 | 11 | 19 | 0.0 | 3.2 | 0.00 | 0.00 | 0.71 | 93 | 1016.4 |
| 20260507113503 | 11 | 12 | 3.2 | 4.8 | 0.00 | 0.00 | 0.71 | 93 | 1016.4 |
| 20260507113007 | 11 | 335 | 3.2 | 8.0 | 0.00 | 0.00 | 0.71 | 93 | 1016.3 |
| 20260507112504 | 11 | 13 | 6.4 | 8.0 | 0.00 | 0.00 | 0.71 | 93 | 1016.5 |
| 20260507112003 | 11 | 15 | 4.8 | 8.0 | 0.00 | 0.00 | 0.71 | 93 | 1016.4 |
| 20260507111506 | 11 | 358 | 0.0 | 4.8 | 0.00 | 0.00 | 0.71 | 94 | 1016.2 |
| 20260507111003 | 11 | 11 | 1.6 | 4.8 | 0.00 | 0.00 | 0.71 | 94 | 1016.3 |
| 20260507110505 | 11 | 21 | 3.2 | 8.0 | 0.00 | 0.00 | 0.71 | 94 | 1016.0 |
| 20260507110002 | 11 | 6 | 4.8 | 4.8 | 0.00 | 0.00 | 0.71 | 94 | 1016.0 |
| 20260507105504 | 11 | 14 | 4.8 | 8.0 | 0.00 | 0.00 | 0.71 | 94 | 1016.0 |
| 20260507105003 | 11 | 349 | 3.2 | 4.8 | 0.00 | 0.00 | 0.71 | 95 | 1016.3 |
| 20260507104504 | 11 | 24 | 4.8 | 11.3 | 0.00 | 0.00 | 0.71 | 94 | 1016.1 |
| 20260507104006 | 11 | 18 | 1.6 | 8.0 | 0.00 | 0.00 | 0.71 | 94 | 1015.9 |
| 20260507103510 | 11 | 29 | 0.0 | 8.0 | 0.00 | 0.00 | 0.71 | 94 | 1015.8 |
| 20260507103003 | 11 | 359 | 1.6 | 4.8 | 0.00 | 0.00 | 0.71 | 95 | 1015.8 |
| 20260507102504 | 11 | 28 | 1.6 | 3.2 | 0.00 | 0.00 | 0.71 | 95 | 1016.0 |
| 20260507102004 | 11 | 355 | 4.8 | 8.0 | 0.00 | 0.00 | 0.71 | 94 | 1016.0 |
| 20260507101507 | 11 | 335 | 3.2 | 4.8 | 0.00 | 0.00 | 0.71 | 94 | 1015.8 |
| 20260507101003 | 11 | 1 | 1.6 | 4.8 | 0.00 | 0.00 | 0.71 | 94 | 1015.8 |
| 20260507100502 | 11 | 349 | 3.2 | 8.0 | 0.00 | 0.00 | 0.71 | 94 | 1015.7 |
| 20260507100005 | 11 | 326 | 3.2 | 4.8 | 0.00 | 0.00 | 0.71 | 94 | 1015.6 |
| 20260507095502 | 11 | 348 | 3.2 | 4.8 | 0.00 | 0.00 | 0.71 | 94 | 1015.5 |
| 20260507095002 | 11 | 355 | 3.2 | 4.8 | 0.00 | 0.00 | 0.71 | 94 | 1015.6 |
| 20260507094503 | 11 | 355 | 1.6 | 4.8 | 0.00 | 0.00 | 0.71 | 94 | 1015.4 |
| 20260507094002 | 11 | 25 | 1.6 | 3.2 | 0.00 | 0.00 | 0.71 | 94 | 1015.6 |
| 20260507093504 | 11 | 16 | 1.6 | 3.2 | 0.00 | 0.00 | 0.71 | 94 | 1015.2 |
| 20260507093003 | 12 | 9 | 3.2 | 8.0 | 0.00 | 0.00 | 0.71 | 94 | 1015.4 |
| 20260507092503 | 11 | 32 | 0.0 | 1.6 | 0.00 | 0.00 | 0.71 | 94 | 1015.2 |
| 20260507092002 | 11 | 359 | 1.6 | 3.2 | 0.00 | 0.00 | 0.71 | 95 | 1015.5 |
| 20260507091503 | 11 | 7 | 1.6 | 3.2 | 0.00 | 0.00 | 0.71 | 94 | 1015.0 |
| 20260507091003 | 12 | 342 | 3.2 | 4.8 | 0.00 | 0.00 | 0.71 | 94 | 1015.1 |
| 20260507090503 | 12 | 348 | 1.6 | 1.6 | 0.00 | 0.00 | 0.71 | 95 | 1015.0 |
| 20260507090002 | 12 | 344 | 1.6 | 3.2 | 0.00 | 0.00 | 0.71 | 95 | 1014.8 |
| 20260507085502 | 12 | 10 | 1.6 | 3.2 | 0.00 | 0.00 | 0.71 | 95 | 1014.9 |
| 20260507085003 | 12 | 24 | 0.0 | 1.6 | 0.00 | 0.00 | 0.71 | 95 | 1014.8 |
| 20260507084502 | 12 | 23 | 1.6 | 1.6 | 0.00 | 0.00 | 0.71 | 95 | 1014.8 |
| 20260507084003 | 12 | 11 | 0.0 | 1.6 | 0.00 | 0.00 | 0.71 | 95 | 1014.7 |
| 20260507083504 | 12 | 355 | 4.8 | 4.8 | 0.00 | 0.00 | 0.71 | 95 | 1014.7 |
| 20260507083005 | 12 | 5 | 0.0 | 4.8 | 0.00 | 0.00 | 0.71 | 95 | 1014.6 |
| 20260507082503 | 12 | 48 | 1.6 | 3.2 | 0.00 | 0.00 | 0.71 | 95 | 1014.6 |
| 20260507082003 | 12 | 43 | 1.6 | 3.2 | 0.00 | 0.00 | 0.71 | 95 | 1014.4 |
| 20260507081504 | 11 | 3 | 0.0 | 1.6 | 0.00 | 0.00 | 0.71 | 95 | 1014.3 |
| 20260507081002 | 11 | 13 | 3.2 | 4.8 | 0.00 | 0.00 | 0.71 | 95 | 1014.3 |
| 20260507080503 | 11 | 9 | 1.6 | 3.2 | 0.00 | 0.00 | 0.71 | 95 | 1014.1 |
| 20260507080004 | 11 | 20 | 0.0 | 3.2 | 0.00 | 0.00 | 0.71 | 95 | 1014.2 |
| 20260507075502 | 11 | 28 | 1.6 | 4.8 | 0.00 | 0.00 | 0.71 | 95 | 1014.4 |
| 20260507075003 | 11 | 357 | 1.6 | 1.6 | 0.00 | 0.00 | 0.71 | 96 | 1014.1 |
| 20260507074503 | 11 | 27 | 1.6 | 1.6 | 0.00 | 0.00 | 0.71 | 96 | 1014.3 |
| 20260507074004 | 11 | 14 | 1.6 | 1.6 | 0.00 | 0.00 | 0.71 | 96 | 1014.0 |
| 20260507073509 | 11 | 44 | 0.0 | 3.2 | 0.00 | 0.00 | 0.71 | 95 | 1014.1 |
| 20260507073002 | 11 | 42 | 0.0 | 1.6 | 0.00 | 0.00 | 0.71 | 95 | 1014.3 |
| 20260507072503 | 11 | 43 | 0.0 | 3.2 | 0.00 | 0.00 | 0.71 | 95 | 1014.1 |
| 20260507072003 | 11 | 353 | 0.0 | 3.2 | 0.00 | 0.00 | 0.71 | 95 | 1014.0 |
| 20260507071504 | 11 | 1 | 3.2 | 3.2 | 0.00 | 0.00 | 0.71 | 95 | 1014.0 |
| 20260507071004 | 11 | 41 | 0.0 | 1.6 | 0.00 | 0.00 | 0.71 | 95 | 1014.0 |
| 20260507070504 | 11 | 50 | 0.0 | 1.6 | 0.00 | 0.00 | 0.71 | 95 | 1014.1 |
| 20260507070010 | 11 | 12 | 1.6 | 1.6 | 0.00 | 0.00 | 0.71 | 95 | 1013.9 |
| 20260507065503 | 11 | 15 | 1.6 | 4.8 | 0.00 | 0.00 | 0.71 | 95 | 1013.7 |
| 20260507065002 | 11 | 51 | 0.0 | 3.2 | 0.00 | 0.00 | 0.71 | 95 | 1013.9 |
| 20260507064504 | 11 | 26 | 3.2 | 4.8 | 0.00 | 0.00 | 0.71 | 95 | 1013.9 |
| 20260507064003 | 11 | 49 | 1.6 | 3.2 | 0.00 | 0.00 | 0.71 | 95 | 1013.6 |
| 20260507063503 | 11 | 61 | 3.2 | 4.8 | 0.00 | 0.00 | 0.71 | 96 | 1013.6 |
| 20260507063003 | 11 | 36 | 3.2 | 4.8 | 0.00 | 0.00 | 0.71 | 96 | 1013.6 |
| 20260507062504 | 11 | 52 | 3.2 | 8.0 | 0.00 | 0.00 | 0.71 | 96 | 1013.4 |
| 20260507062003 | 11 | 358 | 1.6 | 4.8 | 0.00 | 0.00 | 0.71 | 96 | 1013.3 |
| 20260507061505 | 11 | 347 | 3.2 | 4.8 | 0.00 | 0.00 | 0.71 | 96 | 1013.4 |
| 20260507061005 | 11 | 356 | 1.6 | 4.8 | 0.00 | 0.00 | 0.71 | 96 | 1013.3 |
| 20260507060502 | 11 | 37 | 1.6 | 3.2 | 0.00 | 0.00 | 0.71 | 97 | 1013.4 |
| 20260507060003 | 11 | 39 | 0.0 | 4.8 | 0.00 | 0.00 | 0.71 | 96 | 1013.1 |
| 20260507055503 | 11 | 25 | 3.2 | 4.8 | 0.00 | 0.00 | 0.71 | 97 | 1013.2 |
| 20260507055004 | 11 | 326 | 4.8 | 8.0 | 0.00 | 0.00 | 0.71 | 97 | 1013.1 |
| 20260507054504 | 11 | 345 | 3.2 | 4.8 | 0.00 | 0.00 | 0.71 | 97 | 1013.0 |
| 20260507054003 | 11 | 342 | 1.6 | 4.8 | 0.00 | 0.00 | 0.71 | 97 | 1013.0 |
| 20260507053507 | 11 | 334 | 6.4 | 9.7 | 0.00 | 0.00 | 0.71 | 97 | 1012.8 |
| 20260507053003 | 11 | 3 | 1.6 | 8.0 | 0.00 | 0.00 | 0.71 | 97 | 1012.9 |
| 20260507052503 | 11 | 42 | 1.6 | 4.8 | 0.00 | 0.00 | 0.71 | 97 | 1013.0 |
| 20260507052003 | 11 | 359 | 4.8 | 8.0 | 0.00 | 0.00 | 0.71 | 97 | 1012.7 |
| 20260507051504 | 11 | 26 | 0.0 | 3.2 | 0.00 | 0.00 | 0.71 | 97 | 1012.6 |
| 20260507051003 | 11 | 0 | 4.8 | 8.0 | 0.00 | 0.00 | 0.71 | 97 | 1012.7 |
| 20260507050505 | 11 | 356 | 1.6 | 3.2 | 0.00 | 0.00 | 0.71 | 97 | 1012.8 |
| 20260507050003 | 11 | 8 | 1.6 | 4.8 | 0.00 | 0.00 | 0.71 | 97 | 1012.7 |
| 20260507045503 | 11 | 355 | 3.2 | 4.8 | 0.00 | 0.00 | 0.71 | 97 | 1012.5 |
| 20260507045004 | 11 | 5 | 1.6 | 1.6 | 0.00 | 0.00 | 0.71 | 98 | 1012.5 |
| 20260507044502 | 11 | 37 | 0.0 | 3.2 | 0.00 | 0.00 | 0.71 | 97 | 1012.6 |
| 20260507044005 | 11 | 3 | 1.6 | 3.2 | 0.00 | 0.00 | 0.71 | 97 | 1012.8 |
| 20260507043510 | 11 | 20 | 0.0 | 3.2 | 0.00 | 0.00 | 0.71 | 97 | 1012.6 |
| 20260507043004 | 11 | 26 | 1.6 | 4.8 | 0.00 | 0.00 | 0.71 | 97 | 1012.5 |
| 20260507042504 | 11 | 26 | 1.6 | 3.2 | 0.00 | 0.00 | 0.71 | 98 | 1012.5 |
| 20260507042003 | 11 | 16 | 3.2 | 3.2 | 0.00 | 0.00 | 0.71 | 98 | 1012.5 |
| 20260507041504 | 11 | 22 | 1.6 | 3.2 | 0.00 | 0.00 | 0.71 | 97 | 1012.2 |
| 20260507041003 | 11 | 30 | 0.0 | 1.6 | 0.00 | 0.00 | 0.71 | 98 | 1012.2 |
| 20260507040504 | 11 | 19 | 0.0 | 1.6 | 0.00 | 0.00 | 0.71 | 98 | 1012.3 |
| 20260507040003 | 11 | 22 | 1.6 | 3.2 | 0.00 | 0.00 | 0.71 | 98 | 1012.3 |
| 20260507035505 | 12 | 37 | 0.0 | 1.6 | 0.00 | 0.00 | 0.71 | 98 | 1012.2 |